Location: ?????????
(55.6553°N, 38.9075°E)
Time: 15:02:01
(UTC+00:00)

ARIANE 5 R/B - Pass Details

Date: 18 October 2019
Orbit: 748 x 795 km, 98.6° (Epoch: 13 November)

Event Time Altitude Azimuth Distance (km) Brightness Sun altitude
Rises 02:41:58 0° 9° (N) 3,218 5.9 -11.7°
Reaches altitude 10° 02:45:31 10° 343° (NNW) 2,284 4.8 -11.2°
Maximum altitude 02:47:43 13° 317° (NW) 2,076 4.3 -10.9°
Enters shadow 02:49:22 11° 296° (WNW) 2,189 4.3 -10.7°
